Flag for Germany Weather past 2 weeks in Warburg, North Rhine-Westphalia, Germany

Now
73 °F

Broken clouds.


Feels Like: 74 °F
Forecast: 62 / 75 °F
Wind: 12 mph from North

Location: Kassel / Calden

Current Time: Jul 29, 2014 at 5:51:55 PM

Latest Report: Jul 29, 2014 at 5:20 PM


Visibility: N/A

Pressure: 29.77 "Hg

Humidity: 78%

Dew point: 66 °F

Location of WarburgLocation

Historic Weather in Warburg — Graph

°F

Warburg temperature yesterday

Maximum temperature yesterday: 82 °F (at 4:20 PM)
Minimum temperature yesterday: 61 °F (at 5:50 AM)
Average temperature yesterday: 74 °F

Past Weeks' High & Low Weather Summary

 TemperatureHumidityPressure
High90 °F (Jul 19, 4:50 PM)100% (Jul 17, 5:50 AM)30.21 "Hg (Jul 17, 5:50 AM)
Low55 °F (Jul 15, 5:50 AM)31% (Jul 19, 1:20 PM)29.77 "Hg (Jul 29, 3:50 PM)
Average72 °F69%30.00 "Hg
* Reported Jul 14 4:20 PM — Jul 29 4:50 PM, Warburg, Weather by CustomWeather, © 2014

Note: Actual official high and low records may vary slightly from our data, if they occured in-between our weather recording intervals... More about our weather records

Advertising

Warburg weather history for previous 24 hours

 ConditionsComfort  
Time TempWeatherWind HumidityBarometerVisibility
4:50 PM
Jul 29
75 °FBroken clouds.14 mph74%29.77 "HgN/A
4:20 PM77 °FBroken clouds.12 mph74%29.77 "HgN/A
3:50 PM75 °FScattered clouds.13 mph74%29.77 "HgN/A
3:20 PM75 °FScattered clouds.9 mph78%29.80 "HgN/A
2:50 PM73 °FScattered clouds.8 mph78%29.80 "HgN/A
2:20 PM72 °FScattered clouds.9 mph83%29.83 "HgN/A
1:50 PM72 °FScattered clouds.8 mph83%29.83 "HgN/A
1:20 PM68 °FBroken clouds.7 mph88%29.83 "Hg6 mi
12:50 PM68 °FBroken clouds.9 mph88%29.83 "Hg5 mi
12:20 PM66 °FLight rain. Broken clouds.3 mph94%29.86 "Hg4 mi
11:50 AM66 °FLight rain. Broken clouds.3 mph94%29.86 "Hg4 mi
11:20 AM66 °FRain. Broken clouds.3 mph94%29.86 "Hg3 mi
10:50 AM66 °FLight rain. Broken clouds.5 mph94%29.86 "Hg3 mi
10:20 AM66 °FLight rain. Broken clouds.3 mph94%29.86 "Hg2 mi
9:50 AM66 °FRain. Broken clouds.2 mph94%29.86 "Hg3 mi
9:20 AM66 °FFog.5 mph94%29.83 "Hg3 mi
8:50 AM66 °FLight rain. Scattered clouds.1 mph94%29.83 "Hg2 mi
8:20 AM66 °FFog.3 mph94%29.86 "Hg3 mi
7:50 AM66 °FFog.5 mph88%29.83 "Hg3 mi
7:20 AM64 °FFog.5 mph94%29.83 "Hg3 mi
6:50 AM64 °FFog.2 mph94%29.83 "Hg3 mi
6:20 AM63 °FFog.1 mph100%29.83 "Hg2 mi
5:50 AM64 °FFog.2 mph94%29.83 "Hg3 mi
9:50 PM
Jul 28
72 °FRain. Broken clouds.7 mph73%29.86 "HgN/A
9:20 PM72 °FSunny.3 mph73%29.86 "Hg10 mi
8:50 PM73 °FPartly sunny.6 mph69%29.86 "HgN/A
8:20 PM77 °FPartly sunny.5 mph61%29.86 "HgN/A
7:50 PM77 °FScattered clouds.8 mph61%29.83 "HgN/A
7:20 PM79 °FPassing clouds.10 mph58%29.83 "HgN/A
6:50 PM81 °FPassing clouds.13 mph51%29.83 "HgN/A
6:20 PM81 °FPassing clouds.10 mph58%29.83 "HgN/A
5:50 PM81 °FSunny.10 mph54%29.83 "Hg10 mi
5:20 PM81 °FPassing clouds.10 mph51%29.83 "HgN/A
Weather by CustomWeather, © 2014

See weather overviewHow to use our weather pages